Вернуться в каталог

STARLINK-36886

АктивенСвязьVLEO
NORAD 68175·PAYLOAD·🇺🇸 United States

Запущен Mar 14, 2026 с Vandenberg Space Force Base

Loading…

Ближайшие Пролёты (ближайшие 24 часа)

TLE

СвежийSource: CelesTrak SupGP

Эпоха: Sep 15, 2026, 03:33 UTC

1 68175C 26050J   26258.14840278 -.00007059  00000+0 -20859-3 0  2584
2 68175  53.1574 102.5528 0001214  82.6186 110.1251 15.34389827    18

Отслеживайте STARLINK-36886 в реальном времени с AllMySat

Download on the App Store